TimeAKDT,TemperatureF,Dew PointF,Humidity,Sea Level PressureIn,VisibilityMPH,Wind Direction,Wind SpeedMPH,Gust SpeedMPH,PrecipitationIn,Events,Conditions,WindDirDegrees,DateUTC
12:01 AM,-5.1,-9.0,83,29.97,10.0,ENE,10.4,-,N/A,,Clear,70,2013-03-21 08:01:00
1:01 AM,-6.0,-9.0,87,29.99,10.0,East,6.9,-,N/A,,Clear,80,2013-03-21 09:01:00
2:01 AM,-6.0,-9.0,87,30.00,10.0,Calm,Calm,-,N/A,,Clear,0,2013-03-21 10:01:00
3:01 AM,-6.0,-9.9,83,30.01,10.0,East,4.6,-,N/A,,Clear,80,2013-03-21 11:01:00
4:01 AM,-8.0,-11.9,83,30.02,10.0,NE,5.8,-,N/A,,Clear,50,2013-03-21 12:01:00
5:01 AM,-8.0,-11.0,86,30.04,10.0,Calm,Calm,-,N/A,,Clear,0,2013-03-21 13:01:00
6:01 AM,-8.0,-11.9,83,30.04,10.0,North,6.9,-,N/A,,Clear,10,2013-03-21 14:01:00
7:01 AM,-9.0,-13.0,83,30.05,10.0,North,3.5,-,N/A,,Clear,360,2013-03-21 15:01:00
8:01 AM,-9.0,-11.9,87,30.05,10.0,North,4.6,-,N/A,,Unknown,10,2013-03-21 16:01:00
9:01 AM,-9.0,-13.0,83,30.06,10.0,NNW,4.6,-,N/A,,Unknown,330,2013-03-21 17:01:00
10:01 AM,-11.9,-16.1,82,30.07,10.0,North,6.9,-,N/A,,Unknown,360,2013-03-21 18:01:00
11:01 AM,-9.9,-15.0,78,30.08,10.0,North,3.5,-,N/A,,Unknown,350,2013-03-21 19:01:00
12:01 PM,-9.0,-14.1,79,30.09,10.0,West,4.6,-,N/A,,Unknown,280,2013-03-21 20:01:00
1:01 PM,-7.1,-11.9,79,30.10,10.0,West,5.8,-,N/A,,Unknown,270,2013-03-21 21:01:00
2:01 PM,-8.0,-14.1,75,30.11,10.0,NW,8.1,-,N/A,,Unknown,320,2013-03-21 22:01:00
3:01 PM,-6.0,-11.0,79,30.12,10.0,Calm,Calm,-,N/A,,Unknown,0,2013-03-21 23:01:00
4:01 PM,-6.0,-11.0,79,30.13,10.0,WNW,5.8,-,N/A,,Unknown,300,2013-03-22 00:01:00
5:01 PM,-8.0,-11.9,83,30.14,10.0,West,6.9,-,N/A,,Unknown,280,2013-03-22 01:01:00
6:01 PM,-9.0,-14.1,79,30.14,10.0,West,6.9,-,N/A,,Unknown,270,2013-03-22 02:01:00
7:01 PM,-11.9,-17.0,78,30.15,10.0,West,4.6,-,N/A,,Unknown,260,2013-03-22 03:01:00
8:01 PM,-15.0,-18.9,82,30.17,10.0,West,8.1,-,N/A,,Unknown,280,2013-03-22 04:01:00
9:01 PM,-18.0,-23.1,78,30.17,10.0,WSW,9.2,-,N/A,,Unknown,250,2013-03-22 05:01:00
10:01 PM,-18.9,-24.0,78,30.19,10.0,West,11.5,-,N/A,,Unknown,260,2013-03-22 06:01:00
11:01 PM,-20.0,-25.1,78,30.19,10.0,West,11.5,-,N/A,,Unknown,280,2013-03-22 07:01:00